This is the latest recevied weather packets stored in our database for station/object WB7AAV. If no packets are shown the sender has not sent any weather packets the latest 10 day(s).
| Time | Temp. | Humidity | Pressure | Rain* | Wind** | Luminosity | Snow |
|---|---|---|---|---|---|---|---|
| 1777759737 | 20° C | 19% | 1018.9 hPa | 0 mm | - | - | - |
| 1777758534 | 18.89° C | 17% | 1019.3 hPa | 0 mm | - | - | - |
| 1777757934 | 18.33° C | 15% | 1019.4 hPa | 0 mm | - | - | - |
| 1777757634 | 18.89° C | 16% | 1019.6 hPa | 0 mm | - | - | - |
| 1777756134 | 19.44° C | 18% | 1020 hPa | 0 mm | - | - | - |
| 1777755832 | 18.89° C | 21% | 1020.1 hPa | 0 mm | - | - | - |
| 1777747423 | 16.11° C | 24% | 1021.7 hPa | 0 mm | - | - | - |
| 1777746527 | 16.11° C | 24% | 1022.1 hPa | 0 mm | - | - | - |
| 1777745021 | 15° C | 26% | 1022.3 hPa | 0 mm | - | - | - |
| 1777744421 | 15.56° C | 22% | 1022.4 hPa | 0 mm | - | - | - |
| 1777741419 | 13.89° C | 28% | 1022.9 hPa | 0 mm | - | - | - |
| 1777739621 | 13.33° C | 27% | 1023 hPa | 0 mm | - | - | - |
| 1777738719 | 13.33° C | 28% | 1023.2 hPa | 0 mm | - | - | - |
| 1777738423 | 12.78° C | 27% | 1023.2 hPa | 0 mm | - | - | - |
| 1777735413 | 11.67° C | 34% | 1023.4 hPa | 0 mm | - | - | - |
| 1777734819 | 11.67° C | 34% | 1023.5 hPa | 0 mm | - | - | - |
| 1777732719 | 10.56° C | 39% | 1023.6 hPa | 0 mm | - | - | - |
| 1777731809 | 9.44° C | 39% | 1023.6 hPa | 0 mm | - | - | - |
| 1777731804 | 9.44° C | 39% | 1023.6 hPa | 0 mm | - | - | - |
| 1777730904 | 9.44° C | 39% | 1023.5 hPa | 0 mm | - | - | - |
| 1777727601 | 5° C | 46% | 1023.5 hPa | 0 mm | - | - | - |
| 1777724905 | 3.89° C | 48% | 1023.2 hPa | 0 mm | - | - | - |
| 1777723698 | 4.44° C | 47% | 1022.9 hPa | 0 mm | - | - | - |
| 1777721897 | 4.44° C | 47% | 1022.8 hPa | 0 mm | - | - | - |
| 1777720788 | 4.44° C | 48% | 1022.9 hPa | 0 mm | - | - | - |
* Rain latest hour (hover to see other rain measurements)
** Current wind speed in m/s (hover to see current wind gust speed)